Regional Weather Roundup
Issued by NWS Spokane, WA

Home | Current Version | Previous Version | Text Only | Print | Product List | Glossary On
Versions: 1 2 3 4 5 6 7 8 9 10 11 12 13 14 15 16 17 18 19 20 21 22 23 24 25 26 27 28 29 30 31 32 33 34 35 36 37 38 39 40 41 42 43 44 45 46 47 48 49 50
000
NZUS01 KOTX 271310
RWROTX
EASTERN WASHINGTON/NORTHERN IDAHO ROUNDUP
NATIONAL WEATHER SERVICE, SPOKANE WA
500 AM PST TUE JAN 27 2015

Note: "fair" indicated few or no clouds below 12,000 feet with no
significant weather and/or obstructions to visibility.

...NORTHEAST WASHINGTON AND NORTHERN IDAHO PANHANDLE...

CITY           SKY/WX    TMP DP  RH WIND       PRES   REMARKS
SPOKANE INTL   FOG       30  29  96 NE5       29.98S VSB 1/8 WCI  25
SPOKANE DOWNTO CLOUDY    33  30  88 CALM      30.02R
COEUR D ALENE  PTCLDY    28  25  86 NE7       29.99S WCI  21
DEER PARK      FOG       24  22  91 CALM      30.00S VSB 1/2
SANDPOINT      FOG      N/A N/A N/A CALM      30.02F VSB 1/4
BONNERS FERRY  FOG       30  28  93 CALM      30.02S VSB<1/4

...SOUTHEAST WASHINGTON AND SOUTHERN IDAHO PANHANDLE...

CITY           SKY/WX    TMP DP  RH WIND       PRES   REMARKS
WALLA WALLA    FOG       33  32  96 CALM      30.01R VSB 1/4
PULLMAN/MOSCOW MOCLDY    41  34  76 E8        29.99F
LEWISTON       MOCLDY    40  35  83 SE5       30.00S
LOWELL           N/A     35  34  96 CALM      30.12S

...COLUMBIA BASIN...

CITY           SKY/WX    TMP DP  RH WIND       PRES   REMARKS
EPHRATA        CLOUDY    33  32  96 CALM      29.99F
MOSES LAKE     FOG       33  33 100 CALM      30.01S VSB 1/4
TRI CITIES     CLOUDY    37  37 100 CALM      30.05S FOG
HERMISTON      FOG       35  34  96 N3        30.03S VSB 1/2
PENDLETON      FOG       31  31 100 NW3       29.98F VSB<1/4

...EAST SLOPES CASCADES...

CITY           SKY/WX    TMP DP  RH WIND       PRES   REMARKS
THE DALLES     CLOUDY    39  38  96 CALM      30.03F FOG
YAKIMA         FOG       34  32  92 W5        30.02R VSB 1/2 WCI  30
ELLENSBURG     FOG       33  31  92 MISG      29.98S VSB 1/4
WENATCHEE      FOG       33  31  92 NW5       30.01R VSB 1/2 WCI  29
OMAK           CLOUDY    32  31  96 CALM      30.02S FOG

...SOUTHERN BRITISH COLUMBIA...

CITY           SKY/WX    TMP DP  RH WIND       PRES   REMARKS
PENTICTON      CLOUDY    36  34  93 SW5       30.01S

...WESTERN MONTANA...

CITY           SKY/WX    TMP DP  RH WIND       PRES   REMARKS
MISSOULA       CLEAR     24  22  91 CALM      30.06S

...NEIGHBORING CITIES...

CITY           SKY/WX    TMP DP  RH WIND       PRES   REMARKS
SEATTLE        CLOUDY    50  46  86 S7        30.00S
CALGARY        MOCLDY    45  25  45 SE3       29.75S



USA.gov is the U.S. government's official web portal to all federal, state and local government web resources and services.